| time (UTC) | temp F | wind direction | speed knots | gust knots | rain 1hr in | rain 24hr in | rain mn in | humidity % | barometer mb |
| 20260508231408 | 62 | 0 | 0.0 | 0.0 | 0.00 | 0.00 | 0.00 | 1007.4 | |
| 20260508230908 | 61 | 0 | 0.0 | 0.0 | 0.00 | 0.00 | 0.00 | 1007.6 | |
| 20260508230408 | 63 | 0 | 0.0 | 0.0 | 0.00 | 0.00 | 0.00 | 1007.5 | |
| 20260508225908 | 65 | 0 | 0.0 | 0.0 | 0.00 | 0.00 | 0.00 | 1007.5 | |
| 20260508225407 | 65 | 0 | 0.0 | 0.0 | 0.00 | 0.00 | 0.00 | 1007.1 | |
| 20260508224907 | 65 | 0 | 0.0 | 0.0 | 0.00 | 0.00 | 0.00 | 1007.4 | |
| 20260508224407 | 65 | 0 | 0.0 | 0.0 | 0.00 | 0.00 | 0.00 | 1007.2 | |
| 20260508223907 | 66 | 0 | 0.0 | 0.0 | 0.00 | 0.00 | 0.00 | 1007.5 | |
| 20260508223406 | 66 | 0 | 0.0 | 0.0 | 0.00 | 0.00 | 0.00 | 1007.4 | |
| 20260508222906 | 66 | 0 | 0.0 | 0.0 | 0.00 | 0.00 | 0.00 | 1007.4 | |
| 20260508222406 | 67 | 232 | 0.0 | 0.0 | 0.00 | 0.00 | 0.00 | 1007.3 | |
| 20260508221905 | 67 | 249 | 0.0 | 0.9 | 0.00 | 0.00 | 0.00 | 1007.3 | |
| 20260508221404 | 67 | 0 | 0.0 | 0.0 | 0.00 | 0.00 | 0.00 | 1007.3 | |
| 20260508220904 | 67 | 0 | 0.0 | 0.0 | 0.00 | 0.00 | 0.00 | 1007.3 | |
| 20260508220404 | 67 | 0 | 0.0 | 0.0 | 0.00 | 0.00 | 0.00 | 1007.6 | |
| 20260508215904 | 67 | 0 | 0.0 | 0.0 | 0.00 | 0.00 | 0.00 | 1007.3 | |
| 20260508215403 | 68 | 0 | 0.0 | 0.0 | 0.00 | 0.00 | 0.00 | 1007.5 | |
| 20260508214903 | 68 | 0 | 0.0 | 0.0 | 0.00 | 0.00 | 0.00 | 1007.2 | |
| 20260508214403 | 68 | 0 | 0.0 | 0.0 | 0.00 | 0.00 | 0.00 | 1007.4 | |
| 20260508213903 | 68 | 0 | 0.0 | 0.0 | 0.00 | 0.00 | 0.00 | 1007.4 | |
| 20260508213402 | 68 | 0 | 0.0 | 0.0 | 0.00 | 0.00 | 0.00 | 1007.6 | |
| 20260508212400 | 68 | 257 | 0.0 | 0.9 | 0.00 | 0.00 | 0.00 | 1007.5 | |
| 20260508211901 | 68 | 283 | 0.0 | 2.6 | 0.00 | 0.00 | 0.00 | 1007.5 | |
| 20260508211358 | 68 | 284 | 0.0 | 1.7 | 0.00 | 0.00 | 0.00 | 1007.6 | |
| 20260508210858 | 68 | 293 | 0.0 | 2.6 | 0.00 | 0.00 | 0.00 | 1007.9 | |
| 20260508210358 | 68 | 248 | 0.0 | 2.6 | 0.00 | 0.00 | 0.00 | 1008.1 | |
| 20260508205858 | 68 | 259 | 0.0 | 2.6 | 0.00 | 0.00 | 0.00 | 1007.8 | |
| 20260508205358 | 68 | 256 | 0.0 | 2.6 | 0.00 | 0.00 | 0.00 | 1007.8 | |
| 20260508204856 | 68 | 253 | 0.9 | 2.6 | 0.00 | 0.00 | 0.00 | 1008.3 | |
| 20260508204356 | 69 | 291 | 0.0 | 1.7 | 0.00 | 0.00 | 0.00 | 1008.1 | |
| 20260508203856 | 69 | 0 | 0.0 | 0.0 | 0.00 | 0.00 | 0.00 | 1008.4 | |
| 20260508203355 | 70 | 238 | 0.0 | 3.5 | 0.00 | 0.00 | 0.00 | 1008.4 | |
| 20260508202855 | 71 | 0 | 0.0 | 0.0 | 0.00 | 0.00 | 0.00 | 1008.4 | |
| 20260508202355 | 70 | 0 | 0.0 | 0.0 | 0.00 | 0.00 | 0.00 | 1008.6 | |
| 20260508201855 | 69 | 249 | 0.0 | 4.3 | 0.00 | 0.00 | 0.00 | 1008.5 | |
| 20260508201355 | 69 | 0 | 0.0 | 0.0 | 0.00 | 0.00 | 0.00 | 1008.1 | |
| 20260508200854 | 69 | 215 | 0.0 | 3.5 | 0.00 | 0.00 | 0.00 | 1008.7 | |
| 20260508200354 | 69 | 263 | 0.0 | 2.6 | 0.00 | 0.00 | 0.00 | 1008.4 | |
| 20260508195854 | 69 | 221 | 1.7 | 5.2 | 0.00 | 0.00 | 0.00 | 1008.5 | |
| 20260508195354 | 70 | 204 | 0.9 | 3.5 | 0.00 | 0.00 | 0.00 | 1008.5 | |
| 20260508194853 | 70 | 253 | 0.9 | 5.2 | 0.00 | 0.00 | 0.00 | 1008.7 | |
| 20260508194353 | 71 | 278 | 0.9 | 3.5 | 0.00 | 0.00 | 0.00 | 1008.3 | |
| 20260508193853 | 72 | 262 | 0.9 | 4.3 | 0.00 | 0.00 | 0.00 | 1008.6 | |
| 20260508193353 | 72 | 288 | 0.9 | 3.5 | 0.00 | 0.00 | 0.00 | 1008.8 | |
| 20260508192852 | 74 | 249 | 0.9 | 3.5 | 0.00 | 0.00 | 0.00 | 1008.8 | |
| 20260508192352 | 77 | 264 | 0.9 | 4.3 | 0.00 | 0.00 | 0.00 | 1009.0 | |
| 20260508191852 | 79 | 228 | 0.0 | 3.5 | 0.00 | 0.00 | 0.00 | 1008.7 | |
| 20260508191351 | 77 | 278 | 0.0 | 2.6 | 0.00 | 0.00 | 0.00 | 1009.1 | |
| 20260508190851 | 75 | 249 | 0.9 | 4.3 | 0.00 | 0.00 | 0.00 | 1008.7 | |
| 20260508190351 | 75 | 263 | 0.9 | 4.3 | 0.00 | 0.00 | 0.00 | 1009.1 | |
| 20260508185850 | 74 | 277 | 0.9 | 3.5 | 0.00 | 0.00 | 0.00 | 1009.5 | |
| 20260508185350 | 79 | 283 | 1.7 | 6.1 | 0.00 | 0.00 | 0.00 | 1009.8 | |
| 20260508184850 | 85 | 248 | 0.9 | 4.3 | 0.00 | 0.00 | 0.00 | 1009.4 | |
| 20260508184350 | 82 | 232 | 0.9 | 7.0 | 0.00 | 0.00 | 0.00 | 1009.7 | |
| 20260508183849 | 82 | 242 | 1.7 | 7.0 | 0.00 | 0.00 | 0.00 | 1009.2 | |
| 20260508183349 | 79 | 274 | 0.9 | 4.3 | 0.00 | 0.00 | 0.00 | 1009.6 | |
| 20260508182849 | 75 | 252 | 1.7 | 7.0 | 0.00 | 0.00 | 0.00 | 1009.5 | |
| 20260508182348 | 75 | 262 | 1.7 | 6.1 | 0.00 | 0.00 | 0.00 | 1009.5 | |
| 20260508181848 | 76 | 201 | 0.9 | 6.1 | 0.00 | 0.00 | 0.00 | 1010.0 | |
| 20260508181348 | 73 | 257 | 0.9 | 6.1 | 0.00 | 0.00 | 0.00 | 1010.1 | |
| 20260508180845 | 74 | 298 | 1.7 | 4.3 | 0.00 | 0.00 | 0.00 | 1009.9 | |
| 20260508180344 | 73 | 264 | 0.9 | 4.3 | 0.00 | 0.00 | 0.00 | 1010.1 | |
| 20260508175843 | 73 | 249 | 0.0 | 3.5 | 0.00 | 0.00 | 0.00 | 1010.2 | |
| 20260508175343 | 72 | 242 | 0.0 | 2.6 | 0.00 | 0.00 | 0.00 | 1010.0 | |
| 20260508174843 | 69 | 212 | 1.7 | 6.1 | 0.00 | 0.00 | 0.00 | 1010.6 | |
| 20260508174341 | 69 | 253 | 0.9 | 3.5 | 0.00 | 0.00 | 0.00 | 1010.5 | |
| 20260508173841 | 69 | 262 | 0.0 | 3.5 | 0.00 | 0.00 | 0.00 | 1010.6 | |
| 20260508173342 | 71 | 266 | 0.9 | 5.2 | 0.00 | 0.00 | 0.00 | 1010.4 | |
| 20260508172841 | 71 | 243 | 0.0 | 3.5 | 0.00 | 0.00 | 0.00 | 1010.9 | |
| 20260508172340 | 70 | 307 | 1.7 | 7.0 | 0.00 | 0.00 | 0.00 | 1010.9 | |
| 20260508171337 | 72 | 271 | 0.9 | 7.0 | 0.00 | 0.00 | 0.00 | 1011.2 | |
| 20260508170837 | 75 | 205 | 1.7 | 6.1 | 0.00 | 0.00 | 0.00 | 1010.8 | |
| 20260508170337 | 77 | 248 | 0.9 | 4.3 | 0.00 | 0.00 | 0.00 | 1011.2 | |
| 20260508165837 | 79 | 222 | 1.7 | 7.0 | 0.00 | 0.00 | 0.00 | 1011.2 | |
| 20260508165336 | 74 | 264 | 0.9 | 7.0 | 0.00 | 0.00 | 0.00 | 1011.3 | |
| 20260508164836 | 75 | 253 | 1.7 | 5.2 | 0.00 | 0.00 | 0.00 | 1011.3 | |
| 20260508164336 | 75 | 246 | 1.7 | 6.1 | 0.00 | 0.00 | 0.00 | 1011.5 | |
| 20260508163836 | 75 | 257 | 1.7 | 7.8 | 0.00 | 0.00 | 0.00 | 1011.7 | |
| 20260508163335 | 77 | 269 | 1.7 | 4.3 | 0.00 | 0.00 | 0.00 | 1011.8 | |
| 20260508162835 | 78 | 212 | 1.7 | 7.0 | 0.00 | 0.00 | 0.00 | 1011.4 | |
| 20260508162333 | 79 | 229 | 0.9 | 3.5 | 0.00 | 0.00 | 0.00 | 1011.9 | |
| 20260508161833 | 78 | 245 | 1.7 | 6.1 | 0.00 | 0.00 | 0.00 | 1011.5 | |
| 20260508161333 | 79 | 260 | 0.9 | 3.5 | 0.00 | 0.00 | 0.00 | 1011.9 | |
| 20260508160833 | 75 | 250 | 0.9 | 5.2 | 0.00 | 0.00 | 0.00 | 1011.6 | |
| 20260508160330 | 79 | 266 | 0.9 | 7.8 | 0.00 | 0.00 | 0.00 | 1012.0 | |
| 20260508155830 | 76 | 266 | 1.7 | 5.2 | 0.00 | 0.00 | 0.00 | 1011.9 | |
| 20260508155329 | 75 | 231 | 1.7 | 5.2 | 0.00 | 0.00 | 0.00 | 1012.1 | |
| 20260508154828 | 74 | 291 | 1.7 | 5.2 | 0.00 | 0.00 | 0.00 | 1012.1 | |
| 20260508154328 | 75 | 232 | 1.7 | 5.2 | 0.00 | 0.00 | 0.00 | 1012.4 | |
| 20260508153828 | 76 | 257 | 0.9 | 3.5 | 0.00 | 0.00 | 0.00 | 1012.2 | |
| 20260508153328 | 75 | 214 | 1.7 | 5.2 | 0.00 | 0.00 | 0.00 | 1012.1 | |
| 20260508152828 | 78 | 249 | 0.9 | 4.3 | 0.00 | 0.00 | 0.00 | 1012.6 | |
| 20260508152327 | 73 | 273 | 1.7 | 6.1 | 0.00 | 0.00 | 0.00 | 1012.6 | |
| 20260508151827 | 75 | 228 | 1.7 | 5.2 | 0.00 | 0.00 | 0.00 | 1012.3 | |
| 20260508151327 | 74 | 240 | 1.7 | 7.0 | 0.00 | 0.00 | 0.00 | 1012.1 | |
| 20260508150827 | 75 | 248 | 1.7 | 7.0 | 0.00 | 0.00 | 0.00 | 1012.6 | |
| 20260508150326 | 77 | 239 | 0.9 | 5.2 | 0.00 | 0.00 | 0.00 | 1012.4 | |
| 20260508145826 | 74 | 228 | 0.9 | 6.1 | 0.00 | 0.00 | 0.00 | 1012.4 | |
| 20260508145326 | 74 | 238 | 0.9 | 5.2 | 0.00 | 0.00 | 0.00 | 1012.3 | |
| 20260508144826 | 71 | 248 | 1.7 | 6.1 | 0.00 | 0.00 | 0.00 | 1012.8 | |
| 20260508144326 | 71 | 269 | 2.6 | 7.8 | 0.00 | 0.00 | 0.00 | 1012.5 | |
| 20260508143825 | 72 | 231 | 2.6 | 7.8 | 0.00 | 0.00 | 0.00 | 1012.9 | |
| 20260508143325 | 73 | 277 | 1.7 | 6.1 | 0.00 | 0.00 | 0.00 | 1012.7 | |
| 20260508142825 | 74 | 263 | 0.9 | 4.3 | 0.00 | 0.00 | 0.00 | 1012.8 | |
| 20260508142325 | 75 | 214 | 0.9 | 4.3 | 0.00 | 0.00 | 0.00 | 1013.1 | |
| 20260508141823 | 72 | 248 | 0.9 | 4.3 | 0.00 | 0.00 | 0.00 | 1012.8 | |
| 20260508141323 | 70 | 274 | 1.7 | 5.2 | 0.00 | 0.00 | 0.00 | 1013.0 | |
| 20260508140822 | 72 | 250 | 0.9 | 3.5 | 0.00 | 0.00 | 0.00 | 1013.0 | |
| 20260508140322 | 72 | 259 | 0.9 | 4.3 | 0.00 | 0.00 | 0.00 | 1013.0 | |
| 20260508135822 | 72 | 248 | 0.9 | 4.3 | 0.00 | 0.00 | 0.00 | 1012.8 | |
| 20260508135321 | 73 | 239 | 0.9 | 4.3 | 0.00 | 0.00 | 0.00 | 1013.1 | |
| 20260508134821 | 69 | 267 | 0.9 | 4.3 | 0.00 | 0.00 | 0.00 | 1012.8 | |
| 20260508134321 | 72 | 240 | 0.0 | 2.6 | 0.00 | 0.00 | 0.00 | 1013.2 | |
| 20260508133821 | 71 | 269 | 0.9 | 2.6 | 0.00 | 0.00 | 0.00 | 1012.9 | |
| 20260508133320 | 70 | 195 | 0.0 | 3.5 | 0.00 | 0.00 | 0.00 | 1013.2 | |
| 20260508132820 | 66 | 250 | 0.9 | 2.6 | 0.00 | 0.00 | 0.00 | 1012.7 | |
| 20260508132320 | 67 | 295 | 0.9 | 2.6 | 0.00 | 0.00 | 0.00 | 1013.0 | |
| 20260508131820 | 69 | 259 | 0.0 | 1.7 | 0.00 | 0.00 | 0.00 | 1013.2 | |
| 20260508131319 | 67 | 184 | 0.9 | 2.6 | 0.00 | 0.00 | 0.00 | 1012.7 | |
| 20260508130819 | 70 | 204 | 0.9 | 2.6 | 0.00 | 0.00 | 0.00 | 1013.0 | |
| 20260508130319 | 69 | 239 | 0.9 | 2.6 | 0.00 | 0.00 | 0.00 | 1012.9 | |
| 20260508125818 | 69 | 249 | 0.0 | 1.7 | 0.00 | 0.00 | 0.00 | 1013.1 | |
| 20260508125317 | 69 | 186 | 0.0 | 1.7 | 0.00 | 0.00 | 0.00 | 1012.9 | |
| 20260508124817 | 68 | 207 | 0.0 | 0.0 | 0.00 | 0.00 | 0.00 | 1013.2 | |
| 20260508124317 | 65 | 169 | 0.0 | 0.9 | 0.00 | 0.00 | 0.00 | 1012.9 | |
| 20260508123817 | 63 | 208 | 0.0 | 0.9 | 0.00 | 0.00 | 0.00 | 1013.3 | |
| 20260508123316 | 62 | 267 | 0.0 | 0.9 | 0.00 | 0.00 | 0.00 | 1013.1 | |
| 20260508122816 | 57 | 0 | 0.0 | 0.0 | 0.00 | 0.00 | 0.00 | 1013.4 | |
| 20260508122316 | 53 | 0 | 0.0 | 0.0 | 0.00 | 0.00 | 0.00 | 1012.9 | |
| 20260508121815 | 53 | 0 | 0.0 | 0.0 | 0.00 | 0.00 | 0.00 | 1013.2 | |
| 20260508121315 | 53 | 0 | 0.0 | 0.0 | 0.00 | 0.00 | 0.00 | 1013.1 | |
| 20260508120815 | 52 | 0 | 0.0 | 0.0 | 0.00 | 0.00 | 0.00 | 1013.0 | |
| 20260508120315 | 52 | 0 | 0.0 | 0.0 | 0.00 | 0.00 | 0.00 | 1012.9 | |
| 20260508115814 | 55 | 0 | 0.0 | 0.0 | 0.00 | 0.00 | 0.00 | 1012.7 | |
| 20260508114814 | 47 | 0 | 0.0 | 0.0 | 0.00 | 0.00 | 0.00 | 1012.8 | |
| 20260508114313 | 47 | 0 | 0.0 | 0.0 | 0.00 | 0.00 | 0.00 | 1013.2 | |
| 20260508113813 | 47 | 0 | 0.0 | 0.0 | 0.00 | 0.00 | 0.00 | 1012.8 | |
| 20260508113313 | 47 | 0 | 0.0 | 0.0 | 0.00 | 0.00 | 0.00 | 1012.9 | |
| 20260508112812 | 47 | 0 | 0.0 | 0.0 | 0.00 | 0.00 | 0.00 | 1012.8 | |
| 20260508112312 | 46 | 0 | 0.0 | 0.0 | 0.00 | 0.00 | 0.00 | 1012.7 | |
| 20260508111812 | 46 | 0 | 0.0 | 0.0 | 0.00 | 0.00 | 0.00 | 1012.8 | |
| 20260508111312 | 46 | 0 | 0.0 | 0.0 | 0.00 | 0.00 | 0.00 | 1012.8 | |
| 20260508110811 | 46 | 0 | 0.0 | 0.0 | 0.00 | 0.00 | 0.00 | 1012.6 | |
| 20260508110311 | 46 | 0 | 0.0 | 0.0 | 0.00 | 0.00 | 0.00 | 1012.5 | |
| 20260508105811 | 46 | 0 | 0.0 | 0.0 | 0.00 | 0.00 | 0.00 | 1012.4 | |
| 20260508105311 | 45 | 0 | 0.0 | 0.0 | 0.00 | 0.00 | 0.00 | 1012.3 | |
| 20260508104308 | 45 | 0 | 0.0 | 0.0 | 0.00 | 0.00 | 0.00 | 1012.6 | |
| 20260508103808 | 45 | 0 | 0.0 | 0.0 | 0.00 | 0.00 | 0.00 | 1012.7 | |
| 20260508103307 | 45 | 0 | 0.0 | 0.0 | 0.00 | 0.00 | 0.00 | 1012.4 | |
| 20260508102807 | 45 | 0 | 0.0 | 0.0 | 0.00 | 0.00 | 0.00 | 1012.6 | |
| 20260508102307 | 45 | 0 | 0.0 | 0.0 | 0.00 | 0.00 | 0.00 | 1012.8 | |
| 20260508101807 | 44 | 0 | 0.0 | 0.0 | 0.00 | 0.00 | 0.00 | 1012.6 | |
| 20260508101306 | 44 | 0 | 0.0 | 0.0 | 0.00 | 0.00 | 0.00 | 1012.6 | |
| 20260508100806 | 44 | 0 | 0.0 | 0.0 | 0.00 | 0.00 | 0.00 | 1012.7 | |
| 20260508100306 | 44 | 0 | 0.0 | 0.0 | 0.00 | 0.00 | 0.00 | 1012.7 | |
| 20260508095806 | 44 | 0 | 0.0 | 0.0 | 0.00 | 0.00 | 0.00 | 1012.3 | |
| 20260508095307 | 43 | 0 | 0.0 | 0.0 | 0.00 | 0.00 | 0.00 | 1012.6 | |
| 20260508094805 | 43 | 0 | 0.0 | 0.0 | 0.00 | 0.00 | 0.00 | 1012.8 | |
| 20260508094305 | 43 | 0 | 0.0 | 0.0 | 0.00 | 0.00 | 0.00 | 1012.4 | |
| 20260508093805 | 43 | 0 | 0.0 | 0.0 | 0.00 | 0.00 | 0.00 | 1012.7 | |
| 20260508093305 | 44 | 0 | 0.0 | 0.0 | 0.00 | 0.00 | 0.00 | 1012.8 | |
| 20260508092802 | 44 | 0 | 0.0 | 0.0 | 0.00 | 0.00 | 0.00 | 1012.7 | |
| 20260508092312 | 44 | 0 | 0.0 | 0.0 | 0.00 | 0.00 | 0.00 | 1012.7 | |
| 20260508091802 | 44 | 0 | 0.0 | 0.0 | 0.00 | 0.00 | 0.00 | 1012.7 | |
| 20260508090801 | 44 | 0 | 0.0 | 0.0 | 0.00 | 0.00 | 0.00 | 1012.9 | |
| 20260508090300 | 44 | 0 | 0.0 | 0.0 | 0.00 | 0.00 | 0.00 | 1012.6 | |
| 20260508085800 | 43 | 0 | 0.0 | 0.0 | 0.00 | 0.00 | 0.00 | 1012.7 | |
| 20260508085300 | 43 | 0 | 0.0 | 0.0 | 0.00 | 0.00 | 0.00 | 1012.7 | |
| 20260508084800 | 43 | 0 | 0.0 | 0.0 | 0.00 | 0.00 | 0.00 | 1012.7 | |
| 20260508084259 | 42 | 0 | 0.0 | 0.0 | 0.00 | 0.00 | 0.00 | 1012.7 | |
| 20260508083759 | 42 | 0 | 0.0 | 0.0 | 0.00 | 0.00 | 0.00 | 1012.7 | |
| 20260508083259 | 41 | 0 | 0.0 | 0.0 | 0.00 | 0.00 | 0.00 | 1012.5 | |
| 20260508082759 | 41 | 0 | 0.0 | 0.0 | 0.00 | 0.00 | 0.00 | 1012.5 | |
| 20260508082259 | 41 | 0 | 0.0 | 0.0 | 0.00 | 0.00 | 0.00 | 1012.4 | |
| 20260508081758 | 41 | 0 | 0.0 | 0.0 | 0.00 | 0.00 | 0.00 | 1012.5 | |
| 20260508081258 | 41 | 0 | 0.0 | 0.0 | 0.00 | 0.00 | 0.00 | 1012.5 | |
| 20260508080758 | 41 | 0 | 0.0 | 0.0 | 0.00 | 0.00 | 0.00 | 1012.5 | |
| 20260508080258 | 41 | 0 | 0.0 | 0.0 | 0.00 | 0.00 | 0.00 | 1012.5 | |
| 20260508075757 | 41 | 0 | 0.0 | 0.0 | 0.00 | 0.00 | 0.00 | 1012.8 | |
| 20260508075257 | 41 | 0 | 0.0 | 0.0 | 0.00 | 0.00 | 0.00 | 1012.4 | |
| 20260508074757 | 41 | 0 | 0.0 | 0.0 | 0.00 | 0.00 | 0.00 | 1012.5 | |
| 20260508074257 | 42 | 0 | 0.0 | 0.0 | 0.00 | 0.00 | 0.00 | 1012.5 | |
| 20260508073756 | 42 | 0 | 0.0 | 0.0 | 0.00 | 0.00 | 0.00 | 1012.5 | |
| 20260508073256 | 42 | 0 | 0.0 | 0.0 | 0.00 | 0.00 | 0.00 | 1012.7 | |
| 20260508072756 | 42 | 0 | 0.0 | 0.0 | 0.00 | 0.00 | 0.00 | 1012.5 | |
| 20260508072256 | 42 | 0 | 0.0 | 0.0 | 0.00 | 0.00 | 0.00 | 1012.6 | |
| 20260508071755 | 42 | 0 | 0.0 | 0.0 | 0.00 | 0.00 | 0.00 | 1012.3 | |
| 20260508071255 | 42 | 0 | 0.0 | 0.0 | 0.00 | 0.00 | 0.00 | 1012.5 | |
| 20260508070755 | 42 | 0 | 0.0 | 0.0 | 0.00 | 0.00 | 0.00 | 1012.4 | |
| 20260508070255 | 42 | 0 | 0.0 | 0.0 | 0.00 | 0.00 | 0.00 | 1012.5 | |
| 20260508065755 | 42 | 0 | 0.0 | 0.0 | 0.00 | 0.00 | 0.00 | 1012.7 | |
| 20260508065254 | 43 | 0 | 0.0 | 0.0 | 0.00 | 0.00 | 0.00 | 1013.0 | |
| 20260508064754 | 43 | 0 | 0.0 | 0.0 | 0.00 | 0.00 | 0.00 | 1012.8 | |
| 20260508064254 | 43 | 0 | 0.0 | 0.0 | 0.00 | 0.00 | 0.00 | 1013.0 | |
| 20260508063754 | 43 | 0 | 0.0 | 0.0 | 0.00 | 0.00 | 0.00 | 1013.0 | |
| 20260508062753 | 43 | 0 | 0.0 | 0.0 | 0.00 | 0.00 | 0.00 | 1012.9 | |
| 20260508062253 | 43 | 0 | 0.0 | 0.0 | 0.00 | 0.00 | 0.00 | 1013.2 | |
| 20260508061753 | 43 | 0 | 0.0 | 0.0 | 0.00 | 0.00 | 0.00 | 1013.1 | |
| 20260508061252 | 43 | 0 | 0.0 | 0.0 | 0.00 | 0.00 | 0.00 | 1013.4 | |
| 20260508060752 | 43 | 0 | 0.0 | 0.0 | 0.00 | 0.00 | 0.00 | 1013.0 | |
| 20260508055752 | 43 | 0 | 0.0 | 0.0 | 0.00 | 0.00 | 0.00 | 1013.0 | |
| 20260508055251 | 43 | 0 | 0.0 | 0.0 | 0.00 | 0.00 | 0.00 | 1013.1 | |
| 20260508054751 | 43 | 0 | 0.0 | 0.0 | 0.00 | 0.00 | 0.00 | 1013.2 | |
| 20260508054251 | 43 | 0 | 0.0 | 0.0 | 0.00 | 0.00 | 0.00 | 1013.0 | |
| 20260508053750 | 44 | 0 | 0.0 | 0.0 | 0.00 | 0.00 | 0.00 | 1013.1 | |
| 20260508053250 | 44 | 0 | 0.0 | 0.0 | 0.00 | 0.00 | 0.00 | 1012.7 | |
| 20260508052750 | 44 | 0 | 0.0 | 0.0 | 0.00 | 0.00 | 0.00 | 1013.2 | |
| 20260508052250 | 44 | 0 | 0.0 | 0.0 | 0.00 | 0.00 | 0.00 | 1013.1 | |
| 20260508051750 | 44 | 0 | 0.0 | 0.0 | 0.00 | 0.00 | 0.00 | 1012.9 | |
| 20260508051248 | 44 | 0 | 0.0 | 0.0 | 0.00 | 0.00 | 0.00 | 1013.0 | |
| 20260508050748 | 44 | 0 | 0.0 | 0.0 | 0.00 | 0.00 | 0.00 | 1013.0 | |
| 20260508050248 | 45 | 0 | 0.0 | 0.0 | 0.00 | 0.00 | 0.00 | 1013.1 | |
| 20260508045748 | 45 | 0 | 0.0 | 0.0 | 0.00 | 0.00 | 0.00 | 1013.1 | |
| 20260508045247 | 45 | 0 | 0.0 | 0.0 | 0.00 | 0.00 | 0.00 | 1013.0 | |
| 20260508044747 | 45 | 0 | 0.0 | 0.0 | 0.00 | 0.00 | 0.00 | 1013.0 | |
| 20260508044247 | 45 | 0 | 0.0 | 0.0 | 0.00 | 0.00 | 0.00 | 1013.0 | |
| 20260508043747 | 45 | 0 | 0.0 | 0.0 | 0.00 | 0.00 | 0.00 | 1012.8 | |
| 20260508043246 | 45 | 0 | 0.0 | 0.0 | 0.00 | 0.00 | 0.00 | 1013.0 | |
| 20260508042746 | 44 | 0 | 0.0 | 0.0 | 0.00 | 0.00 | 0.00 | 1012.8 | |
| 20260508042246 | 45 | 0 | 0.0 | 0.0 | 0.00 | 0.00 | 0.00 | 1013.0 | |
| 20260508041746 | 45 | 0 | 0.0 | 0.0 | 0.00 | 0.00 | 0.00 | 1012.9 | |
| 20260508041245 | 45 | 0 | 0.0 | 0.0 | 0.00 | 0.00 | 0.00 | 1012.9 | |
| 20260508040745 | 45 | 0 | 0.0 | 0.0 | 0.00 | 0.00 | 0.00 | 1012.8 | |
| 20260508040245 | 45 | 0 | 0.0 | 0.0 | 0.00 | 0.00 | 0.00 | 1012.9 | |
| 20260508035745 | 45 | 0 | 0.0 | 0.0 | 0.00 | 0.00 | 0.00 | 1012.9 | |
| 20260508034744 | 45 | 0 | 0.0 | 0.0 | 0.00 | 0.00 | 0.00 | 1012.7 | |
| 20260508034244 | 46 | 0 | 0.0 | 0.0 | 0.00 | 0.00 | 0.00 | 1012.9 | |
| 20260508033744 | 46 | 0 | 0.0 | 0.0 | 0.00 | 0.00 | 0.00 | 1012.9 | |
| 20260508033244 | 46 | 0 | 0.0 | 0.0 | 0.00 | 0.00 | 0.00 | 1012.6 | |
| 20260508032743 | 46 | 0 | 0.0 | 0.0 | 0.00 | 0.00 | 0.00 | 1013.0 | |
| 20260508032243 | 46 | 0 | 0.0 | 0.0 | 0.00 | 0.00 | 0.00 | 1013.0 | |
| 20260508031743 | 46 | 0 | 0.0 | 0.0 | 0.00 | 0.00 | 0.00 | 1013.0 | |
| 20260508031243 | 47 | 0 | 0.0 | 0.0 | 0.00 | 0.00 | 0.00 | 1012.6 | |
| 20260508030742 | 47 | 0 | 0.0 | 0.0 | 0.00 | 0.00 | 0.00 | 1012.8 | |
| 20260508030242 | 47 | 0 | 0.0 | 0.0 | 0.00 | 0.00 | 0.00 | 1012.5 | |
| 20260508025742 | 47 | 0 | 0.0 | 0.0 | 0.00 | 0.00 | 0.00 | 1012.5 | |
| 20260508025241 | 47 | 0 | 0.0 | 0.0 | 0.00 | 0.00 | 0.00 | 1012.6 | |
| 20260508024741 | 47 | 0 | 0.0 | 0.0 | 0.00 | 0.00 | 0.00 | 1012.7 | |
| 20260508024240 | 47 | 0 | 0.0 | 0.0 | 0.00 | 0.00 | 0.00 | 1012.6 | |
| 20260508023740 | 48 | 0 | 0.0 | 0.0 | 0.00 | 0.00 | 0.00 | 1012.7 | |
| 20260508023240 | 48 | 0 | 0.0 | 0.0 | 0.00 | 0.00 | 0.00 | 1012.7 | |
| 20260508022238 | 48 | 0 | 0.0 | 0.0 | 0.00 | 0.00 | 0.00 | 1012.5 | |
| 20260508021738 | 48 | 0 | 0.0 | 0.0 | 0.00 | 0.00 | 0.00 | 1012.8 | |
| 20260508021238 | 49 | 0 | 0.0 | 0.0 | 0.00 | 0.00 | 0.00 | 1012.5 | |
| 20260508020737 | 49 | 0 | 0.0 | 0.0 | 0.00 | 0.00 | 0.00 | 1012.5 | |
| 20260508020237 | 49 | 0 | 0.0 | 0.0 | 0.00 | 0.00 | 0.00 | 1012.2 | |
| 20260508015737 | 49 | 0 | 0.0 | 0.0 | 0.00 | 0.00 | 0.00 | 1012.8 | |
| 20260508015237 | 49 | 0 | 0.0 | 0.0 | 0.00 | 0.00 | 0.00 | 1012.4 | |
| 20260508014736 | 49 | 0 | 0.0 | 0.0 | 0.00 | 0.00 | 0.00 | 1012.6 | |
| 20260508014236 | 50 | 0 | 0.0 | 0.0 | 0.00 | 0.00 | 0.00 | 1012.3 | |
| 20260508013736 | 50 | 0 | 0.0 | 0.0 | 0.00 | 0.00 | 0.00 | 1012.8 | |
| 20260508013236 | 50 | 0 | 0.0 | 0.0 | 0.00 | 0.00 | 0.00 | 1012.4 | |
| 20260508012733 | 51 | 0 | 0.0 | 0.0 | 0.00 | 0.00 | 0.00 | 1012.6 | |
| 20260508012233 | 51 | 0 | 0.0 | 0.0 | 0.00 | 0.00 | 0.00 | 1012.4 | |
| 20260508011733 | 51 | 0 | 0.0 | 0.0 | 0.00 | 0.00 | 0.00 | 1012.5 | |
| 20260508011232 | 51 | 0 | 0.0 | 0.0 | 0.00 | 0.00 | 0.00 | 1012.4 | |
| 20260508010731 | 52 | 0 | 0.0 | 0.0 | 0.00 | 0.00 | 0.00 | 1012.2 | |
| 20260508010231 | 52 | 0 | 0.0 | 0.0 | 0.00 | 0.00 | 0.00 | 1012.4 | |
| 20260508005731 | 53 | 0 | 0.0 | 0.0 | 0.00 | 0.00 | 0.00 | 1012.1 | |
| 20260508005231 | 53 | 0 | 0.0 | 0.0 | 0.00 | 0.00 | 0.00 | 1012.3 | |
| 20260508004730 | 54 | 0 | 0.0 | 0.0 | 0.00 | 0.00 | 0.00 | 1012.5 | |
| 20260508004229 | 55 | 0 | 0.0 | 0.0 | 0.00 | 0.00 | 0.00 | 1012.5 | |
| 20260508003729 | 55 | 0 | 0.0 | 0.0 | 0.00 | 0.00 | 0.00 | 1012.2 | |
| 20260508003232 | 56 | 0 | 0.0 | 0.0 | 0.00 | 0.00 | 0.00 | 1012.2 | |
| 20260508002725 | 56 | 0 | 0.0 | 0.0 | 0.00 | 0.00 | 0.00 | 1011.8 | |
| 20260508002225 | 57 | 0 | 0.0 | 0.0 | 0.00 | 0.00 | 0.00 | 1012.3 | |
| 20260508001724 | 57 | 0 | 0.0 | 0.0 | 0.00 | 0.00 | 0.00 | 1011.9 | |
| 20260508001224 | 57 | 0 | 0.0 | 0.0 | 0.00 | 0.00 | 0.00 | 1012.2 | |
| 20260508000724 | 58 | 0 | 0.0 | 0.0 | 0.00 | 0.00 | 0.00 | 1012.1 | |
| 20260508000224 | 58 | 248 | 0.0 | 1.7 | 0.00 | 0.00 | 0.00 | 1012.1 | |
| 20260507235724 | 58 | 0 | 0.0 | 0.0 | 0.00 | 0.00 | 0.00 | 1012.1 | |
| 20260507235223 | 58 | 0 | 0.0 | 0.0 | 0.00 | 0.00 | 0.00 | 1012.0 | |
| 20260507234723 | 58 | 0 | 0.0 | 0.0 | 0.00 | 0.00 | 0.00 | 1011.9 | |
| 20260507234223 | 59 | 0 | 0.0 | 0.0 | 0.00 | 0.00 | 0.00 | 1012.0 | |
| 20260507233723 | 59 | 236 | 0.0 | 0.9 | 0.00 | 0.00 | 0.00 | 1012.2 | |
| 20260507233222 | 60 | 263 | 0.0 | 1.7 | 0.00 | 0.00 | 0.00 | 1012.0 | |
| 20260507232721 | 60 | 177 | 0.0 | 0.9 | 0.00 | 0.00 | 0.00 | 1012.0 | |
| 20260507232221 | 61 | 0 | 0.0 | 0.0 | 0.00 | 0.00 | 0.00 | 1011.9 | |
| 20260507231720 | 61 | 0 | 0.0 | 0.0 | 0.00 | 0.00 | 0.00 | 1012.0 |